Theta_e
339 338 339 338 338 338 335 328 330 336 338 340 341 340 341 340 341 340 340 338 336 334 332 331 331 330 331 332 332 331 332 332 333 333 333 334 332 332 331 330 331 332 333 333 333 332 332 332 331 330 330 329 328 328 327 327 327 327 328 328 328 328 327 327 327 328 328 329 327 326 327 327 327 327 327 327 327 326 326 326 326 326 326 326 326
339 338 339 338 339 338 335 332 332 335 336 339 341 341 341 341 340 339 338 336 334 333 333 333 333 330 328 330 330 331 331 330 332 333 333 332 332 331 331 330 331 331 332 332 332 332 331 331 331 331 330 328 326 326 325 325 326 326 327 327 327 327 326 326 326 326 326 326 327 326 327 327 327 327 326 326 326 326 326 326 327 327 327 326 325
338 339 338 338 338 337 336 334 332 334 336 338 340 340 340 340 339 338 336 335 334 332 332 334 334 331 329 330 330 331 331 331 332 332 331 331 331 331 330 329 330 330 330 331 330 331 330 330 330 330 330 327 325 325 323 323 325 326 326 325 325 324 323 323 323 324 324 324 326 326 326 326 326 326 326 326 325 325 326 326 326 326 326 326 326
339 339 337 338 338 337 337 335 333 333 335 336 338 339 339 339 338 337 335 334 332 329 331 333 333 333 332 330 330 331 332 332 332 331 331 330 329 329 329 329 329 329 329 329 330 329 330 330 330 330 329 326 324 325 324 324 325 324 323 322 321 319 319 320 322 324 324 325 325 325 326 326 326 326 326 325 325 324 325 325 326 326 326 327 327
339 339 338 338 337 338 337 335 332 330 331 332 334 338 338 338 338 337 334 332 330 327 329 332 332 334 332 330 330 330 331 331 330 329 330 329 329 329 328 329 329 329 329 329 329 329 329 329 330 330 329 327 325 325 326 325 325 323 322 322 320 320 320 321 323 323 323 323 323 324 325 325 326 326 326 325 325 324 325 325 326 327 327 327 327
339 339 338 338 337 338 337 333 330 329 328 327 329 336 337 336 337 335 333 331 330 329 330 333 333 335 333 331 330 330 330 330 330 330 329 329 329 330 329 329 329 329 329 329 329 329 329 329 329 329 330 329 326 324 325 325 325 324 323 323 322 322 322 323 323 323 322 322 323 325 325 325 326 326 326 325 325 325 325 326 327 327 327 327 326
338 339 339 338 338 337 336 332 331 331 328 327 327 331 335 335 334 333 332 331 331 331 332 334 334 335 334 332 331 330 330 331 332 331 331 329 328 329 329 329 329 329 329 328 328 329 328 329 328 329 329 328 327 324 324 324 324 324 323 323 323 323 324 324 324 324 324 324 325 326 326 326 326 326 325 325 325 325 326 326 327 327 327 326 326
338 339 339 338 337 336 334 331 332 332 329 330 329 327 331 333 333 332 331 330 332 332 332 334 335 334 334 334 333 333 331 331 331 332 331 330 328 328 328 329 329 328 329 329 329 328 328 329 328 329 327 327 327 325 325 324 324 323 322 322 322 323 323 324 324 325 325 325 326 326 326 326 326 326 325 325 325 325 326 327 328 327 327 326 326
339 338 339 339 337 335 333 333 334 332 328 329 331 330 329 329 327 328 329 330 333 332 329 331 333 333 333 333 333 333 331 330 330 330 329 328 328 328 328 328 329 328 328 329 329 328 328 329 328 328 327 326 325 325 325 324 323 322 320 320 321 322 323 324 324 325 325 325 326 326 327 327 327 327 326 325 325 326 326 328 328 327 327 327 328
338 338 339 338 337 335 332 334 334 330 328 329 331 332 330 329 326 327 330 331 332 330 328 329 330 331 333 333 332 333 332 330 329 328 326 327 328 328 328 328 328 328 328 329 328 328 328 328 328 328 327 325 324 324 324 323 321 320 320 320 321 322 323 324 324 324 325 326 326 327 327 328 328 328 327 326 326 326 327 328 327 327 328 328 328
338 339 338 338 337 334 333 334 332 329 329 329 329 330 330 330 330 330 330 331 331 330 330 330 328 330 332 332 332 333 332 329 329 328 327 328 329 329 329 328 328 329 329 328 328 328 327 328 328 327 326 325 324 324 323 322 319 319 319 320 320 320 321 321 321 322 323 324 325 326 328 328 329 329 328 327 327 327 327 328 327 328 329 328 329
338 338 338 338 336 335 334 333 330 329 331 330 330 330 330 330 330 331 330 330 332 331 331 330 329 331 332 333 333 332 332 330 329 329 329 328 328 328 327 327 328 328 328 328 327 327 327 327 327 326 325 324 324 324 322 321 320 319 319 320 320 320 320 320 320 320 321 322 322 325 328 328 329 329 329 328 327 327 327 326 327 328 328 328 328
337 338 338 338 336 335 333 331 331 329 330 332 331 329 329 330 330 330 330 330 331 330 330 330 330 332 333 332 332 332 332 331 329 329 330 328 329 327 326 327 327 327 327 327 327 326 327 326 326 325 324 323 322 323 321 321 321 320 320 320 321 320 320 320 320 320 320 320 320 323 327 328 328 329 329 328 327 327 327 325 327 328 327 328 328
337 338 338 337 335 334 332 331 332 329 328 331 330 327 328 330 330 330 330 330 330 330 330 330 330 331 331 331 332 331 331 330 329 328 329 329 329 326 326 327 324 325 326 326 326 326 326 325 326 325 324 323 322 321 321 321 321 320 320 320 321 321 321 321 320 320 320 321 320 322 327 328 328 328 328 328 327 326 326 325 327 328 327 327 327
337 337 337 336 335 333 332 331 332 331 328 330 331 328 329 329 329 329 330 330 329 329 330 330 329 330 329 329 331 331 331 330 329 328 328 328 327 325 327 327 324 325 325 324 325 325 325 325 325 324 323 324 322 321 321 321 321 320 320 321 321 321 321 320 320 320 320 321 321 322 325 328 329 327 328 328 327 327 325 325 327 327 327 327 326
336 337 337 336 335 333 332 332 333 331 329 331 330 329 329 328 328 328 330 330 328 329 329 330 330 330 329 328 330 331 330 330 330 329 328 327 325 325 327 328 325 325 324 323 324 323 324 324 323 322 322 323 321 320 320 320 321 321 321 321 321 321 321 320 320 320 320 321 321 322 323 325 328 327 327 328 327 327 326 326 327 327 327 326 326
336 336 336 335 335 333 332 332 333 332 330 331 330 329 327 326 328 328 329 329 328 329 329 330 330 330 329 329 330 330 329 329 330 329 328 327 325 326 327 327 325 324 324 323 322 321 321 320 319 320 321 321 321 320 320 321 321 321 321 321 321 321 321 320 320 320 320 320 320 321 322 324 327 328 328 327 326 326 327 327 326 326 326 326 326
337 336 336 335 335 334 332 333 333 333 331 330 330 329 325 325 329 328 329 329 327 328 328 328 330 330 329 328 328 328 328 329 330 329 328 326 326 327 326 326 325 323 323 322 319 318 317 316 316 317 319 319 320 321 321 321 321 322 321 321 321 321 321 321 321 320 320 319 319 321 322 325 327 328 328 326 326 326 327 327 326 326 326 325 325
336 336 336 335 336 334 332 333 333 333 331 330 329 329 325 324 328 328 328 329 326 327 328 328 329 329 329 329 328 327 328 327 328 329 327 326 326 327 326 324 324 323 322 319 317 316 316 315 315 315 318 319 319 320 321 321 321 322 322 321 321 321 321 321 321 321 320 319 319 320 322 326 327 328 328 326 326 326 326 326 325 325 325 325 324
336 336 336 336 336 335 332 333 333 332 332 330 328 328 326 323 327 328 328 329 327 326 328 328 328 327 327 328 328 328 329 327 327 328 327 326 327 327 326 324 324 324 321 318 316 316 316 315 315 315 317 319 319 320 320 321 321 322 321 321 321 321 320 320 321 320 320 319 319 319 320 325 328 328 327 325 326 326 325 326 325 325 325 324 322
335 335 336 336 335 335 333 332 332 332 332 331 328 327 326 323 324 326 327 327 327 326 327 328 328 326 325 326 327 327 328 328 327 327 327 327 327 327 325 324 324 324 321 318 316 316 316 315 315 314 316 319 320 320 321 321 321 321 321 321 321 321 320 320 320 319 319 319 319 318 319 324 327 327 326 325 325 326 325 325 325 325 325 323 321
335 335 335 335 335 335 334 333 332 331 331 331 329 327 325 324 323 324 325 325 326 325 326 328 328 326 324 323 325 326 327 329 327 327 327 326 327 326 325 324 322 322 320 318 316 316 315 315 314 314 317 319 320 321 321 321 321 322 321 320 320 320 320 320 320 318 319 320 318 319 319 322 327 327 326 325 324 325 324 323 325 325 323 322 320
334 335 334 334 334 334 334 334 333 332 332 331 330 328 325 325 324 325 325 325 326 325 325 326 327 326 323 322 323 324 326 327 327 326 326 326 326 326 325 324 322 321 320 317 316 316 315 315 314 316 318 320 320 321 321 321 322 322 321 320 320 319 319 319 319 318 320 320 319 321 321 322 326 327 327 325 324 324 323 324 324 323 322 321 319
335 334 334 334 334 334 333 333 334 333 333 332 331 329 326 325 325 326 325 325 326 325 324 324 325 325 324 323 323 323 324 324 325 325 325 325 325 325 325 324 323 322 320 317 316 316 315 315 315 318 319 320 320 321 321 321 322 322 321 321 320 319 319 318 318 318 321 320 319 321 322 323 325 327 327 325 324 324 323 324 324 322 320 319 317
334 333 333 333 334 333 333 333 333 333 334 333 331 330 328 326 325 326 326 325 325 325 324 324 324 324 325 325 324 324 324 323 323 323 323 324 324 324 323 323 322 322 321 318 317 315 315 315 316 318 319 320 321 321 322 322 322 322 322 321 321 320 319 319 318 318 320 320 319 320 320 323 325 326 327 325 323 323 324 323 322 321 318 316 312
333 334 332 333 334 333 332 332 332 332 333 333 332 331 330 328 326 326 326 326 326 325 325 325 324 324 324 324 324 324 323 322 322 322 322 322 323 322 322 322 320 320 320 318 316 315 315 315 315 317 319 320 321 321 321 322 322 322 322 321 320 320 320 319 319 318 319 319 318 320 319 320 324 325 326 325 324 323 324 323 322 320 318 315 309
332 333 332 332 333 333 332 332 331 331 331 332 332 332 330 329 328 327 326 326 325 325 326 326 325 324 323 324 324 323 322 322 322 321 321 321 321 320 319 319 318 318 318 317 316 315 315 314 314 316 317 319 321 321 321 321 322 321 321 321 321 320 320 320 318 318 319 319 319 320 319 318 320 323 325 324 323 323 324 323 321 320 317 314 309
331 331 331 331 332 333 332 331 331 330 330 331 332 332 331 330 329 328 327 326 325 323 324 325 325 324 323 323 323 323 322 322 323 322 320 319 318 318 317 316 315 315 314 314 314 314 314 314 314 314 317 320 321 322 321 321 321 321 320 321 321 320 320 320 319 318 318 319 319 319 320 319 317 320 324 323 322 324 324 323 321 319 317 315 313
330 330 330 330 331 332 332 331 331 330 330 330 331 332 332 331 329 329 328 327 326 324 322 322 323 323 323 322 322 322 321 321 323 323 319 317 316 316 315 314 313 312 311 311 313 314 314 314 313 314 318 321 322 322 322 322 322 321 321 321 321 320 321 320 319 319 318 318 319 319 319 320 316 315 320 322 322 324 324 322 320 319 317 316 315
329 329 329 330 331 332 332 332 331 330 330 330 330 331 331 332 330 329 329 328 328 326 324 322 320 321 322 322 321 321 320 318 321 323 319 316 314 314 313 312 311 310 309 309 311 313 313 313 312 314 320 322 321 322 322 322 322 322 321 321 321 321 321 320 318 318 318 319 319 319 319 320 317 310 316 322 323 324 323 321 320 318 317 316 316
329 329 329 330 330 331 331 332 332 331 330 329 329 329 330 331 331 330 329 328 329 328 326 324 321 319 320 321 321 321 320 318 319 322 320 317 315 313 313 313 311 309 308 307 309 311 312 313 312 316 322 322 321 322 322 323 323 322 321 321 322 321 321 319 319 318 318 319 319 319 318 320 317 309 315 321 322 324 322 321 319 318 317 316 316
330 330 330 330 330 331 331 331 331 331 330 329 328 328 329 330 331 330 330 329 329 329 328 327 325 321 319 320 321 320 320 319 318 320 321 319 317 316 316 315 312 309 307 306 307 309 312 312 312 317 322 322 322 322 323 324 323 322 322 322 322 322 321 320 319 319 319 319 320 319 318 320 316 310 317 321 322 324 321 319 318 316 317 316 316
329 329 330 330 330 330 331 331 331 331 330 329 328 327 328 329 330 330 330 330 329 329 329 328 327 324 321 320 320 320 320 321 319 319 321 321 320 319 319 318 314 311 309 307 306 308 311 311 312 319 323 322 323 323 323 324 322 322 322 322 322 322 322 321 320 320 319 319 320 320 319 319 317 313 318 322 322 322 319 317 317 316 316 316 316
328 329 329 329 329 330 330 331 331 331 331 330 329 328 327 327 328 329 329 330 330 330 329 329 328 326 324 321 321 320 321 321 321 321 321 322 322 321 321 320 316 314 313 310 307 307 310 310 312 320 323 322 323 322 323 323 323 323 323 323 322 322 322 321 321 320 319 320 320 320 319 319 318 316 318 321 321 320 318 317 316 316 316 315 315
328 328 329 328 329 329 329 330 330 331 331 331 330 329 328 327 327 327 328 329 330 330 330 330 329 327 326 324 322 321 321 321 322 322 323 324 323 322 321 319 318 317 317 315 311 309 310 310 312 320 323 322 323 322 323 323 323 324 323 323 323 322 322 321 321 321 319 319 320 320 320 319 318 317 316 319 321 319 318 317 316 314 313 314 315
328 328 328 328 329 328 329 329 329 330 330 330 331 330 329 328 327 327 327 329 330 330 330 330 330 328 327 326 324 323 322 321 321 322 323 324 323 321 320 319 319 319 318 317 315 311 310 310 313 319 323 323 323 323 323 324 323 324 323 323 322 322 322 321 321 321 319 319 320 320 319 318 318 317 316 317 320 319 318 316 315 312 309 312 314
328 328 328 328 328 328 329 329 328 329 329 330 330 330 330 329 328 328 328 329 330 331 330 330 330 329 327 327 326 325 324 323 321 321 322 322 321 319 318 318 319 320 319 319 316 312 311 314 316 320 323 324 323 323 323 324 324 324 323 323 322 322 322 321 321 320 319 319 320 320 319 319 318 317 316 315 317 318 318 317 315 313 307 308 313
328 328 328 328 328 328 328 328 328 328 328 329 329 330 330 330 329 329 329 329 330 331 330 330 330 329 328 328 327 326 325 324 323 321 320 320 319 318 317 317 319 320 320 320 318 315 314 317 320 322 323 324 324 324 324 324 324 324 324 322 322 322 321 321 321 319 319 320 321 320 320 319 318 318 316 315 315 316 317 316 315 315 308 303 309
328 328 328 328 328 328 328 328 328 328 328 328 328 329 329 330 329 329 329 329 330 330 330 330 329 329 328 328 328 328 327 326 324 321 320 320 320 319 317 318 319 320 321 321 319 317 316 319 322 323 324 324 324 324 324 324 324 325 324 322 322 322 321 321 321 320 320 320 321 321 320 319 318 318 317 315 314 314 315 315 315 315 308 299 300
328 328 328 328 328 328 327 328 328 328 328 327 328 328 329 329 329 328 329 329 329 329 330 330 329 329 328 329 329 328 328 327 324 322 320 320 320 320 319 319 319 320 320 321 319 317 316 320 323 324 324 324 324 324 324 325 325 324 323 322 322 322 321 321 321 322 321 321 321 321 320 318 317 317 317 316 314 313 313 314 314 312 303 296 295
327 327 328 328 328 328 327 327 328 327 327 327 327 327 328 328 328 328 328 328 328 328 329 329 329 329 329 329 329 329 328 327 326 323 321 322 321 320 319 319 319 319 319 319 318 316 315 319 322 324 324 324 325 325 325 325 324 323 322 321 321 321 321 321 322 322 322 322 321 321 320 318 316 316 316 316 314 313 312 312 312 305 295 293 293
324 326 327 328 328 328 327 328 327 327 327 327 327 327 327 327 327 327 327 328 328 327 328 328 328 329 329 329 329 329 328 328 326 324 323 323 322 320 318 318 319 319 319 318 318 317 316 318 321 323 324 324 324 325 325 324 323 322 321 321 321 321 321 321 321 322 322 322 321 321 320 318 316 315 315 315 314 313 310 309 306 298 292 292 292
319 323 326 327 328 328 328 328 327 327 327 327 326 327 326 326 326 325 325 326 326 327 327 327 328 328 328 329 329 328 328 328 327 325 324 324 323 322 319 319 319 319 319 319 319 318 317 317 320 323 324 324 324 324 325 324 323 322 321 321 322 321 320 320 319 320 321 321 321 321 320 318 316 314 314 314 314 312 310 307 302 294 292 292 292
317 321 323 325 327 327 328 327 327 327 327 327 327 326 326 326 326 325 325 325 325 326 327 327 327 327 327 327 327 327 327 327 327 326 325 325 325 323 321 320 320 319 320 319 319 318 316 317 320 323 324 324 324 324 324 324 324 323 321 320 319 320 321 320 318 318 319 320 320 320 319 318 316 314 313 313 313 312 310 307 303 297 293 292 292
316 318 320 322 324 325 326 326 327 327 327 327 327 326 326 325 325 325 325 325 325 325 325 326 326 326 327 327 327 327 327 327 327 326 326 325 325 323 322 320 320 320 320 320 319 316 316 317 318 322 324 324 324 324 324 324 324 324 323 321 319 320 321 318 318 317 316 317 318 318 318 318 317 315 313 312 312 310 309 307 305 302 298 296 294
316 317 318 319 321 322 324 325 326 326 326 326 326 326 325 324 324 324 324 324 324 325 325 326 326 326 326 326 326 326 326 326 326 326 326 325 325 324 322 321 320 320 320 320 319 318 318 317 317 320 323 324 325 324 324 324 324 324 323 323 323 323 320 317 318 317 314 314 315 315 316 316 316 315 313 312 311 310 309 308 306 305 302 299 298
317 318 317 318 319 321 322 324 325 325 326 326 326 325 325 324 324 324 325 324 324 325 325 325 325 325 325 326 326 326 326 327 326 326 326 326 325 324 323 322 321 321 321 321 320 320 319 318 317 318 320 323 324 323 324 323 322 323 323 323 322 322 321 318 318 318 317 314 311 311 312 313 313 314 313 313 312 311 310 308 307 305 303 302 303
318 317 317 318 318 320 321 323 324 325 325 326 326 325 325 325 325 324 324 324 325 325 325 325 325 325 325 325 325 326 326 326 326 326 326 326 325 324 323 323 322 321 321 321 320 319 320 320 320 319 319 321 323 323 324 323 322 322 323 322 322 321 321 320 319 319 320 319 312 306 307 309 309 311 312 313 312 311 310 309 307 305 304 304 305
317 316 317 318 318 319 320 321 323 324 325 325 325 325 325 325 325 325 324 325 325 325 325 324 325 325 325 325 325 325 326 326 326 326 326 325 325 324 323 323 322 322 321 321 320 320 321 321 322 321 320 320 321 322 323 323 323 323 323 322 321 320 320 320 319 318 318 321 316 307 304 304 305 308 311 312 311 310 309 308 306 305 305 305 305
316 317 317 317 317 318 319 320 322 324 325 325 325 325 325 325 325 325 325 325 325 325 324 324 324 324 325 325 325 325 325 325 326 326 325 325 325 324 323 323 322 322 321 321 321 321 321 321 322 322 321 320 321 322 322 323 323 323 323 322 321 319 319 318 317 317 316 317 317 312 305 303 305 308 312 313 312 310 308 307 306 304 305 305 305
316 316 316 316 316 316 317 319 320 322 324 325 325 325 325 325 325 325 325 325 325 325 324 324 324 324 324 325 325 325 325 325 325 325 325 326 325 325 324 323 322 322 322 321 321 321 321 321 322 322 322 321 321 321 322 322 323 322 322 322 321 321 320 319 318 318 317 316 316 315 309 306 308 310 312 314 312 310 308 306 306 305 305 305 305
Wind_Speed
15 15 14 13 12 9 7 9 11 11 10 12 14 14 15 14 13 12 13 13 13 14 13 12 13 13 13 13 13 13 13 13 12 12 13 13 12 12 13 14 15 15 15 15 15 15 15 15 15 15 15 17 18 18 17 17 18 19 19 18 17 18 19 19 19 19 20 20 20 19 19 18 19 19 18 19 18 18 20 20 20 20 20 20 19
18 16 14 14 12 10 8 9 12 12 10 11 13 14 14 13 12 12 12 12 13 13 13 12 12 12 12 13 13 13 12 11 12 12 12 12 12 12 13 14 15 15 15 15 15 15 15 15 15 16 16 16 18 19 18 19 19 19 19 18 17 17 18 18 18 19 20 21 20 20 19 18 18 18 18 17 17 18 18 19 20 19 19 19 19
18 17 15 14 13 11 9 9 11 12 12 11 12 13 12 13 12 11 10 10 10 10 12 11 11 12 13 14 13 12 11 11 11 12 12 12 11 12 13 14 15 15 15 15 15 15 15 15 16 16 16 16 18 20 19 20 19 19 19 18 17 16 17 17 18 19 20 21 20 19 19 18 18 17 17 17 16 17 17 18 19 19 18 17 18
18 18 16 15 14 12 10 9 9 11 12 11 11 13 12 12 12 10 9 8 6 7 10 10 10 12 13 13 12 11 10 11 11 11 12 12 12 13 14 15 15 15 15 15 15 15 15 16 16 16 16 16 18 20 20 20 19 19 19 19 18 18 18 19 19 20 20 20 19 19 19 19 17 16 16 17 16 17 17 17 17 17 16 16 16
17 17 17 16 14 13 11 9 8 9 10 9 11 14 13 12 11 10 9 8 7 9 12 11 9 12 13 13 12 12 11 11 11 11 12 12 13 14 14 15 15 15 16 15 15 15 16 16 16 16 16 16 17 19 20 20 19 19 19 20 20 21 21 20 20 19 19 18 18 18 19 18 17 16 16 16 16 17 17 16 16 15 12 12 14
17 17 17 15 14 13 11 9 8 8 8 8 10 13 13 14 13 11 11 11 11 12 12 11 9 11 13 12 12 12 11 11 11 11 12 12 13 14 14 15 15 15 16 15 15 16 16 16 16 16 15 15 16 17 18 19 18 18 18 18 19 20 20 20 19 18 17 17 17 18 18 18 17 16 15 15 15 15 15 14 14 11 10 10 11
17 17 17 16 15 13 11 10 8 8 7 8 9 12 13 13 14 12 12 12 11 12 11 9 9 12 13 11 12 13 12 12 11 12 12 12 13 13 13 14 15 15 15 15 15 15 15 15 15 15 15 14 15 16 17 17 17 16 16 16 17 19 19 18 18 17 16 16 16 16 16 16 17 16 15 14 13 13 13 12 11 11 11 11 9
16 17 17 16 15 13 11 10 8 7 8 9 8 10 12 13 13 11 11 11 11 12 11 9 9 11 12 11 12 13 13 12 11 11 12 12 12 12 13 14 14 14 14 14 14 15 15 15 15 15 14 14 14 14 15 16 16 15 15 16 16 17 16 15 15 14 15 15 14 14 14 14 15 16 14 13 12 11 12 11 10 12 12 11 10
15 16 17 16 15 14 12 10 9 7 9 10 10 10 10 10 10 11 11 11 11 11 10 10 10 10 10 9 10 12 13 12 12 10 10 11 12 12 13 13 14 14 14 14 14 14 14 14 15 14 14 14 13 14 15 15 15 15 15 15 15 15 14 13 12 12 13 13 12 12 12 12 13 15 13 13 12 11 13 11 10 12 12 12 11
15 16 17 16 15 14 12 11 8 7 8 10 12 10 10 10 9 11 13 12 10 8 9 10 10 9 9 9 8 11 12 11 10 9 10 12 12 13 13 13 13 13 13 13 13 13 14 14 14 14 13 12 13 13 14 14 15 15 14 14 13 13 13 12 11 11 11 10 9 9 10 9 11 13 12 12 11 11 12 11 10 11 11 11 11
14 16 17 16 15 14 13 11 8 8 9 10 12 11 10 11 10 11 13 12 10 8 9 10 10 8 9 10 8 10 11 9 9 10 11 12 12 12 12 13 13 13 13 12 13 13 13 13 13 12 12 11 12 12 13 14 14 15 14 13 13 12 12 11 11 10 10 9 9 9 9 8 10 10 11 11 10 10 10 9 11 11 11 11 11
14 16 17 17 16 15 13 11 9 9 10 10 12 12 10 11 11 10 12 12 10 10 9 10 10 8 8 10 9 9 9 8 8 10 11 11 11 11 11 12 12 12 12 12 12 12 12 12 12 11 10 10 11 11 11 12 13 13 14 13 13 12 12 11 10 10 9 8 9 10 10 10 10 9 9 10 9 10 8 9 12 11 11 11 11
14 16 18 17 16 15 13 11 9 9 11 11 11 12 11 11 11 10 11 11 10 10 9 10 10 8 7 8 9 8 8 8 8 9 10 10 10 10 11 11 11 12 12 11 11 11 11 11 11 10 9 10 10 10 10 10 11 11 11 12 12 11 11 10 10 10 9 8 8 9 10 11 11 9 9 9 9 9 7 10 12 11 12 12 12
15 17 18 17 16 15 13 12 10 9 11 13 10 11 12 11 10 9 10 10 10 10 9 10 10 8 7 7 8 8 7 7 7 8 9 9 9 9 9 8 9 11 10 11 11 10 10 10 9 9 9 9 9 9 9 9 9 9 9 10 10 10 10 9 9 10 9 8 6 8 9 9 10 9 9 10 9 7 7 10 11 11 12 12 12
16 18 19 17 16 15 14 12 10 9 11 13 10 10 12 11 10 9 9 10 10 9 9 9 9 8 6 6 6 7 7 7 7 8 9 8 7 7 8 7 7 9 9 10 10 10 10 9 9 9 8 8 7 7 7 7 7 7 8 8 9 9 9 9 9 9 9 8 6 6 7 8 9 7 8 10 9 8 9 10 10 11 12 12 12
16 18 18 18 17 16 15 13 11 10 11 12 11 10 10 11 10 9 9 9 9 9 8 8 8 7 7 7 7 7 7 7 7 7 7 7 6 7 8 7 7 7 7 8 8 8 9 9 8 8 8 7 6 6 6 6 6 6 6 7 7 7 8 8 8 9 9 8 6 5 4 6 8 6 7 9 8 9 9 10 11 11 11 11 11
15 17 18 18 17 17 16 14 12 11 12 12 11 10 9 10 11 9 9 9 9 9 8 9 9 8 8 8 8 8 7 7 7 6 6 6 6 7 7 6 5 5 6 7 7 7 7 7 8 8 7 7 6 5 5 5 4 5 5 5 5 6 7 7 8 9 9 8 5 4 3 4 7 6 7 8 7 9 9 10 10 11 11 11 11
15 16 17 18 17 17 17 15 14 13 13 12 12 11 9 11 12 10 10 10 9 10 9 9 10 10 10 9 9 9 8 7 7 7 6 5 6 6 5 4 2 3 5 6 6 6 6 6 6 6 7 6 5 4 3 3 3 4 4 5 5 5 5 6 7 8 9 8 5 4 3 4 6 6 7 8 7 9 9 9 9 10 10 10 11
15 16 16 18 18 18 18 17 16 15 14 13 12 12 10 11 12 11 11 12 10 10 10 10 11 11 11 10 10 10 8 8 7 7 6 6 6 5 3 2 2 3 4 5 6 5 5 5 5 5 5 6 5 4 3 2 2 3 4 4 5 5 5 5 6 7 8 9 5 3 2 4 6 5 7 8 7 9 10 9 8 9 9 9 11
15 16 16 17 17 19 19 18 17 16 15 14 13 13 11 12 14 13 13 13 12 11 11 12 12 11 11 11 10 10 8 8 8 7 6 6 6 5 3 3 3 3 3 4 6 5 5 5 5 5 5 5 5 4 3 3 3 3 3 3 3 3 4 3 4 5 7 9 6 2 1 4 6 4 6 8 7 8 9 8 6 8 8 8 10
16 17 17 17 17 19 20 19 19 17 16 15 14 14 13 14 15 15 15 15 14 13 13 13 13 11 12 12 11 10 9 8 8 7 7 7 6 5 4 4 6 5 3 5 6 6 5 5 5 6 6 6 6 5 4 4 3 2 1 2 2 2 3 3 3 5 6 8 6 3 2 3 6 4 6 7 7 8 6 5 5 8 8 7 10
18 18 19 18 18 21 21 20 20 19 17 16 15 14 15 15 15 16 17 16 15 15 15 14 14 12 12 13 13 12 10 9 8 8 7 7 7 6 5 6 7 6 4 5 6 6 6 6 6 6 7 7 6 5 4 4 3 2 1 1 2 2 3 3 3 5 6 7 6 3 3 3 5 4 5 6 8 7 5 5 7 9 8 8 9
20 20 21 20 19 23 22 20 21 20 19 17 17 15 16 16 15 16 17 16 16 16 16 16 15 14 12 12 14 13 12 11 10 10 8 8 7 7 6 7 7 7 5 4 5 6 6 6 7 7 8 7 6 5 4 5 5 3 2 0 2 2 3 4 4 5 6 7 6 4 3 3 3 4 5 7 8 7 5 6 8 7 7 7 8
23 23 23 22 21 23 22 21 21 21 20 19 18 17 17 17 16 17 17 17 17 17 17 16 15 14 13 12 13 13 12 11 11 11 10 10 9 8 8 8 8 7 7 6 6 7 7 8 8 9 9 8 6 5 5 5 6 4 3 2 2 3 3 4 4 5 5 6 6 5 5 3 2 3 5 7 8 7 5 6 5 5 7 7 7
23 23 24 23 22 24 24 22 21 22 22 21 21 20 18 18 18 18 18 18 17 17 16 15 15 14 13 13 13 13 12 12 12 12 11 11 11 11 10 10 10 9 9 8 8 8 9 10 11 11 10 8 7 6 5 6 6 4 3 3 2 3 4 3 4 4 4 5 5 6 5 4 4 3 5 7 8 7 6 5 4 5 7 7 8
22 23 24 25 22 23 25 23 22 22 23 24 23 21 20 20 20 19 19 19 19 18 17 16 15 14 14 14 14 14 13 13 12 12 12 12 12 12 12 12 11 11 10 10 9 10 11 11 12 12 11 9 8 7 6 6 6 5 3 3 3 3 4 4 4 4 5 6 5 6 6 4 4 4 5 7 7 6 6 6 5 6 7 7 9
24 25 26 26 22 22 24 24 24 24 23 24 24 24 23 22 21 21 21 21 20 20 20 19 18 16 16 16 16 15 15 14 13 13 13 14 14 13 13 13 12 12 12 12 11 12 12 12 13 14 12 10 8 7 6 6 6 4 3 3 4 4 5 3 3 4 5 7 6 6 7 4 2 3 4 5 5 4 7 8 7 7 8 8 9
23 26 27 26 22 22 24 24 25 25 25 25 25 26 25 24 23 23 23 22 22 22 22 21 20 19 18 18 18 18 17 17 15 14 14 15 15 15 14 14 14 14 13 13 13 13 13 13 13 14 12 10 9 7 6 6 5 5 4 4 4 4 5 3 3 5 5 6 7 7 7 6 2 1 3 4 4 4 8 10 9 8 9 9 9
23 26 28 27 23 23 24 25 26 25 26 27 27 28 27 26 26 25 25 23 23 22 22 22 22 21 21 20 19 20 20 19 17 16 15 16 17 17 16 16 15 15 14 14 14 14 14 13 13 13 12 11 9 8 6 6 6 6 5 5 5 5 5 4 3 5 4 5 7 8 8 7 5 2 5 5 5 5 9 11 9 8 9 10 9
24 24 25 25 24 24 24 24 25 24 25 27 29 29 28 28 28 27 26 26 25 23 23 23 23 23 23 22 21 21 20 20 18 17 17 17 18 19 18 17 16 15 15 14 14 14 14 14 14 14 12 11 9 8 7 7 7 8 7 6 6 6 6 3 3 5 4 4 5 8 8 8 8 3 8 7 6 6 10 10 8 8 9 9 9
26 25 25 24 23 25 25 24 24 24 25 27 29 30 30 30 30 29 28 27 26 25 25 25 24 24 24 24 23 22 21 20 20 19 18 17 18 19 18 18 17 15 15 14 14 14 14 14 14 14 12 11 10 8 8 7 7 7 7 7 7 7 6 3 1 5 5 4 5 7 8 8 10 3 9 8 7 8 9 7 7 8 8 9 8
29 30 29 27 27 27 27 26 25 24 26 28 29 30 31 31 31 31 30 29 28 27 27 26 26 25 25 25 25 24 23 22 21 21 20 19 18 18 18 18 17 14 14 14 14 15 15 15 15 15 13 12 11 9 8 7 7 7 7 8 9 8 6 5 4 5 6 5 6 7 7 8 9 2 9 8 8 9 8 7 8 8 8 8 7
32 31 29 29 29 29 28 28 27 26 28 29 29 30 31 31 32 32 32 31 30 29 29 28 27 27 26 26 26 26 25 24 23 22 21 20 19 18 18 18 16 14 13 13 14 16 16 16 16 15 14 13 11 10 10 9 9 9 9 9 10 10 9 8 8 7 7 7 7 6 6 7 8 2 8 7 9 10 8 9 9 8 8 7 7
32 30 30 30 30 29 29 29 28 28 29 30 30 30 31 31 33 33 33 33 32 32 31 30 29 28 28 27 27 27 27 26 25 23 22 22 21 20 20 19 17 14 13 13 14 16 16 16 17 16 14 13 12 11 11 11 10 10 10 9 9 9 10 10 9 8 8 9 9 7 5 6 7 2 7 9 11 11 10 10 10 9 9 7 7
31 31 32 32 31 30 30 30 30 30 30 31 31 31 31 31 32 33 33 33 33 33 32 31 30 29 29 28 28 28 28 28 27 26 25 24 23 23 22 20 18 16 15 14 14 16 17 17 17 17 15 14 13 12 11 11 11 11 11 10 9 9 9 10 11 10 8 10 11 9 5 6 7 4 6 10 13 13 12 12 12 11 10 8 7
31 33 33 32 32 32 31 31 31 31 32 32 32 32 32 32 33 33 32 33 33 34 33 32 31 30 30 29 29 29 29 29 28 28 27 27 26 26 24 21 19 18 17 15 15 17 18 18 18 18 17 16 15 13 12 12 12 12 12 12 12 11 11 10 11 10 8 10 11 9 7 8 7 5 6 10 13 14 14 13 12 10 9 8 8
33 33 33 33 33 33 33 32 32 32 32 33 33 33 34 34 34 34 33 33 34 34 33 33 32 32 31 31 30 29 29 29 29 29 29 29 29 28 25 23 21 20 18 17 17 18 19 19 18 18 18 17 16 15 14 13 13 13 13 14 13 13 13 10 8 8 10 13 13 11 11 9 7 7 7 10 13 15 15 13 12 10 8 9 9
34 33 33 34 34 34 34 34 33 33 33 33 33 34 34 34 35 35 35 35 35 35 34 33 33 33 32 32 31 30 30 30 30 30 31 31 30 29 27 25 23 22 20 20 19 19 20 20 20 19 19 19 18 17 16 15 15 15 14 15 15 14 13 11 10 11 12 14 16 15 14 11 8 8 9 10 13 15 15 14 12 11 10 10 10
33 33 34 33 34 34 34 35 35 34 34 34 33 34 34 34 34 34 35 36 36 35 35 35 34 34 33 32 31 31 31 31 30 30 31 31 31 29 28 26 25 24 22 22 21 21 22 22 22 21 21 21 20 19 18 17 17 17 16 15 14 14 13 12 13 14 14 14 15 17 16 14 11 9 9 11 12 14 15 15 13 12 12 13 11
32 32 33 33 34 35 34 35 36 36 35 34 34 34 34 34 34 35 36 37 37 36 36 36 35 35 35 33 33 33 33 32 31 31 30 31 31 30 29 27 26 26 25 25 23 23 23 24 24 23 23 22 22 22 20 19 18 17 15 15 14 13 14 14 15 16 15 14 14 17 18 17 14 11 10 11 12 14 15 15 15 14 14 14 12
30 31 32 34 35 35 35 36 38 37 36 36 36 36 37 36 36 37 38 38 37 36 36 37 37 37 36 35 35 35 34 33 32 31 31 30 30 29 29 29 28 28 28 27 25 23 24 25 25 25 24 24 24 23 21 20 16 14 13 12 13 14 14 14 15 16 16 16 16 18 20 19 17 14 12 12 13 14 15 16 15 15 15 14 13
29 31 32 34 35 35 36 38 38 37 38 40 39 39 40 39 38 39 40 40 38 37 38 38 38 38 38 37 37 36 35 34 33 32 31 31 30 30 30 30 30 30 30 28 26 25 25 27 27 26 25 25 25 23 22 18 13 12 11 7 8 12 13 13 15 16 16 17 18 19 21 20 20 18 15 14 14 15 15 16 15 15 15 14 14
29 30 32 33 34 35 38 39 38 38 40 41 40 41 42 41 40 38 37 37 36 37 38 37 37 38 37 37 37 36 36 36 35 33 33 32 32 31 31 31 31 32 31 30 29 28 28 29 29 28 26 24 23 23 23 20 15 12 8 5 4 5 8 11 14 17 17 17 18 19 20 21 21 20 18 17 16 16 16 16 16 16 15 14 14
29 30 31 33 35 37 39 39 39 40 40 41 42 43 41 38 37 34 32 31 31 32 33 34 36 36 36 37 37 37 36 37 36 35 35 34 34 33 33 33 33 33 33 33 32 31 31 31 31 30 27 23 23 24 23 22 21 15 6 2 2 2 5 6 9 14 16 16 17 18 19 21 22 22 20 19 18 17 17 17 17 18 18 16 15
29 32 33 34 36 38 38 39 40 40 41 41 42 41 38 35 33 30 27 25 26 27 28 32 36 36 37 38 38 37 37 37 37 37 37 36 35 35 35 35 35 35 34 34 35 34 33 33 33 32 31 27 25 24 23 23 25 24 15 7 2 2 4 3 4 8 12 16 16 17 20 21 23 24 23 22 21 19 18 19 20 21 22 20 17
31 33 34 35 36 37 37 38 39 40 41 41 40 39 38 36 33 31 29 28 28 30 34 39 40 40 40 39 38 37 37 37 37 38 38 37 37 37 37 37 36 36 36 36 36 35 35 34 35 34 34 33 29 23 23 24 25 27 27 22 16 11 5 4 3 2 6 14 17 18 20 21 23 25 25 24 23 22 21 22 23 23 23 23 21
35 34 33 34 36 36 36 37 38 40 40 40 39 39 39 38 37 38 38 36 35 38 42 43 41 39 39 38 38 38 37 38 38 38 38 38 38 38 38 38 38 37 37 37 37 37 37 36 36 36 36 36 31 26 26 25 24 26 30 32 30 25 16 10 6 2 2 8 15 18 20 20 22 24 26 27 25 25 26 25 25 25 25 23 22
35 32 32 34 35 36 36 37 37 38 39 38 38 39 40 41 41 41 40 39 40 42 42 40 37 36 36 37 38 38 38 38 38 38 38 38 38 39 39 39 39 38 38 38 39 38 38 37 36 36 36 36 34 32 30 26 25 27 30 31 33 31 27 22 17 12 6 3 7 12 16 20 22 25 27 28 29 29 29 29 28 27 26 25 23
32 31 32 34 34 34 35 36 37 38 37 37 37 39 41 41 41 41 40 40 42 41 37 33 33 34 35 37 37 38 39 39 39 39 38 38 38 39 39 39 40 40 39 40 40 39 38 38 37 37 37 37 36 35 33 31 30 30 28 28 30 30 29 27 24 19 13 8 4 4 11 16 18 25 31 31 32 33 31 30 30 29 27 26 25
29 30 32 32 32 33 33 35 37 38 37 37 38 39 41 41 41 40 40 40 40 38 33 30 31 32 34 36 37 38 38 39 39 39 39 39 38 39 39 40 40 40 40 41 40 39 38 39 38 38 38 38 38 36 36 35 34 32 29 26 26 25 23 21 21 20 16 12 8 4 10 15 14 22 32 34 35 35 34 33 31 31 30 29 27
27 27 29 31 32 32 33 35 37 37 37 37 38 39 40 41 42 41 41 41 39 35 32 32 33 33 35 37 37 38 38 39 39 39 39 39 39 39 39 40 40 39 40 41 40 40 40 40 39 38 38 38 38 37 37 37 33 30 30 28 28 29 28 24 23 24 19 13 9 6 12 20 19 21 27 33 36 36 35 36 35 34 33 32 30
Wind_Direction
162 159 152 143 136 138 134 132 126 121 122 116 117 117 113 111 112 111 106 102 94 86 78 75 81 89 96 97 97 98 97 97 96 96 95 94 94 92 93 97 96 92 90 86 84 81 79 78 78 81 79 76 76 78 80 83 84 83 83 83 82 89 96 95 92 88 85 81 77 75 70 68 67 67 67 65 66 67 66 66 67 65 63 62 65
158 158 153 146 141 141 137 132 130 126 128 122 119 119 117 115 116 110 107 100 89 87 84 86 94 92 96 101 101 101 97 98 99 98 99 97 96 94 93 96 99 96 92 89 86 83 81 80 82 85 83 79 77 77 80 84 84 84 84 83 84 94 98 96 96 90 86 85 83 81 76 70 67 68 67 65 65 66 64 63 65 64 63 63 65
153 156 154 149 145 143 141 133 133 129 128 129 123 122 119 115 112 106 102 94 86 84 90 98 105 102 100 103 102 103 103 102 99 97 96 94 94 93 93 95 99 97 94 92 89 86 83 82 85 89 87 82 79 77 80 85 86 85 86 84 88 97 97 96 95 90 86 85 83 82 79 73 66 66 65 64 63 66 66 64 64 64 64 62 63
155 156 155 153 149 145 145 139 135 135 134 131 129 130 123 116 114 110 100 89 78 78 100 106 107 112 109 107 106 105 105 102 97 94 91 92 95 93 93 95 100 100 98 95 91 88 84 86 88 90 88 83 81 80 81 84 86 87 87 87 90 93 93 94 92 90 88 86 84 80 78 73 67 64 63 63 62 66 68 65 65 64 62 63 63
158 156 157 156 153 151 150 147 139 143 146 139 136 139 131 124 121 113 102 93 87 92 108 111 112 121 115 108 108 107 103 99 96 97 94 92 93 93 96 98 100 101 99 96 93 91 86 87 90 91 88 85 83 82 84 85 86 86 87 87 89 91 91 94 94 93 90 89 87 81 76 73 68 64 63 64 63 64 66 64 62 59 58 64 66
162 159 159 158 158 157 153 151 145 146 151 146 145 149 142 133 130 118 108 103 100 102 109 120 130 125 114 105 105 109 106 102 100 101 102 97 95 93 96 98 99 101 98 97 94 92 88 87 90 91 91 89 85 83 86 86 87 86 86 86 87 91 92 93 92 91 89 87 84 79 76 74 71 65 62 63 63 63 62 60 54 48 52 56 54
166 161 159 162 163 163 156 152 150 148 141 138 144 154 155 144 136 126 118 111 108 110 113 122 128 123 118 110 109 112 108 104 101 101 105 104 104 97 95 98 99 101 99 97 95 93 90 88 90 93 94 94 89 86 87 87 87 87 85 84 86 90 90 90 89 88 84 82 81 80 79 76 73 67 60 60 60 61 57 53 43 35 41 41 36
167 164 161 165 166 163 157 154 152 146 136 134 132 142 156 156 147 137 126 119 117 117 120 116 107 114 116 113 114 117 111 106 103 99 99 97 101 99 98 100 99 101 100 98 97 94 91 90 90 92 96 98 95 90 89 89 88 88 86 85 86 89 88 88 87 85 81 78 77 79 81 80 76 68 60 56 55 53 47 43 36 33 35 35 38
168 166 163 166 168 163 157 156 156 148 138 134 125 123 135 147 153 145 130 124 128 123 127 126 110 109 111 113 116 120 118 114 111 105 104 101 101 102 99 99 100 101 100 98 97 95 93 92 91 92 95 99 100 96 94 91 88 88 87 86 85 85 86 87 85 83 79 76 76 78 81 82 78 69 59 54 51 46 40 33 29 33 37 39 43
169 167 165 168 169 164 160 160 160 150 140 136 130 130 130 129 136 139 133 131 139 134 130 132 125 129 132 128 124 126 125 119 116 110 111 109 104 102 99 99 101 101 100 98 96 96 94 94 93 94 95 97 99 98 96 91 88 88 88 87 85 82 80 81 80 78 76 74 71 71 76 82 78 67 59 54 49 46 37 25 23 33 39 41 45
175 170 168 171 171 168 166 167 163 150 144 144 139 139 138 135 135 138 141 139 141 141 134 133 135 151 149 135 131 132 126 115 110 107 111 110 106 104 103 104 101 99 99 98 98 98 96 97 97 96 97 99 99 97 97 92 88 87 88 87 84 80 76 73 71 69 70 68 61 57 63 71 70 63 59 55 46 43 34 22 26 36 42 44 48
179 175 172 173 174 173 172 170 162 153 149 147 145 144 145 144 143 144 146 142 140 140 137 136 140 152 147 136 134 133 124 113 109 112 114 112 113 110 105 103 100 101 103 102 101 101 100 100 99 98 99 103 99 96 96 93 91 88 86 84 81 77 72 67 63 62 62 60 57 54 56 59 58 55 58 53 42 41 29 24 33 39 48 51 53
183 178 175 176 177 176 175 171 162 157 156 154 155 154 152 149 149 148 147 149 147 145 144 141 141 138 130 134 134 132 126 116 115 119 117 113 113 108 105 107 108 108 106 106 106 104 104 103 101 101 101 104 102 99 98 95 94 90 84 81 78 72 68 63 58 56 56 56 58 55 52 54 54 51 55 51 41 41 25 25 37 47 54 58 58
185 180 177 179 179 178 176 175 167 159 161 162 166 159 152 152 155 155 152 155 153 150 150 145 144 138 130 137 136 133 131 124 125 128 125 120 115 110 111 119 117 110 109 113 112 108 106 103 102 105 105 104 106 105 102 97 95 91 85 81 76 70 65 59 54 51 52 57 64 67 57 54 56 49 52 52 39 36 30 29 43 55 59 61 61
185 181 181 182 181 180 179 181 173 163 164 167 171 160 152 158 160 159 160 161 157 156 158 151 148 150 147 145 144 140 138 136 138 140 137 132 125 121 120 120 121 115 116 120 118 115 108 103 105 109 109 105 108 109 104 101 98 92 85 81 75 69 61 53 51 49 49 54 65 83 71 57 55 47 49 52 41 34 38 41 51 60 62 63 63
186 183 184 184 184 182 182 186 180 170 168 173 179 165 162 166 162 165 164 162 162 163 167 162 156 159 155 147 153 152 149 153 148 148 145 139 136 135 129 121 129 128 118 118 121 119 108 107 119 122 121 114 112 111 105 105 100 95 88 81 75 65 57 49 46 45 45 48 60 87 89 54 47 50 53 51 49 43 44 52 56 60 62 64 64
190 187 186 187 189 185 185 188 184 179 175 180 186 178 175 167 164 174 170 169 170 171 175 167 164 164 160 160 169 171 168 167 159 158 151 145 149 145 139 130 140 137 119 121 125 122 115 120 133 135 134 129 120 111 107 109 101 93 87 78 73 66 55 46 41 38 35 37 49 70 78 53 43 49 56 49 54 52 51 59 59 61 62 62 68
193 191 190 192 193 189 189 191 189 185 183 187 191 191 183 166 170 181 180 185 180 180 186 175 176 174 171 178 188 193 192 183 172 169 163 162 164 154 148 139 155 150 131 135 133 130 127 131 137 140 141 137 129 120 118 117 107 91 82 76 72 64 52 44 42 34 27 28 36 56 62 62 47 43 57 54 58 63 61 59 58 61 61 66 76
194 196 195 197 197 194 193 194 196 191 189 192 196 199 190 174 177 184 187 193 190 190 192 184 189 187 183 189 198 206 203 197 188 180 176 178 177 172 172 152 162 172 156 146 143 146 144 143 145 147 147 142 134 129 132 130 123 104 85 76 67 58 53 45 41 32 21 23 26 48 63 70 54 45 64 63 66 71 63 58 53 58 65 76 79
196 200 199 201 202 199 197 197 200 198 195 197 200 204 199 187 185 189 192 194 197 201 198 193 199 200 197 198 205 212 209 207 203 197 193 193 191 196 210 189 184 190 178 166 158 160 159 159 158 157 156 152 145 138 138 133 131 117 92 64 51 47 51 38 34 24 12 18 18 37 79 73 63 54 68 71 76 70 66 71 64 67 78 79 75
200 203 201 203 204 203 203 200 203 204 201 201 203 207 204 197 193 194 197 199 201 206 206 200 203 208 211 212 213 217 217 213 211 210 209 210 210 217 224 208 210 216 196 181 173 170 170 174 173 169 164 162 157 149 146 145 146 134 108 38 17 13 31 27 24 13 4 9 13 55 115 78 71 70 73 78 82 69 64 81 80 83 85 71 71
201 203 206 206 204 205 208 204 205 207 207 207 206 207 207 206 202 199 201 202 201 204 209 208 208 212 216 219 219 221 222 220 221 222 223 223 223 230 231 223 228 235 222 196 187 187 185 187 185 179 172 171 172 168 166 167 176 179 172 18 4 7 28 22 4 0 0 7 13 67 107 76 77 87 92 91 86 73 48 63 89 92 82 68 69
200 202 205 208 207 209 212 207 207 210 211 212 211 210 208 210 209 203 204 204 203 203 208 211 212 218 220 219 221 224 226 228 232 233 234 233 233 238 240 239 243 248 239 217 210 207 202 205 197 186 184 185 189 189 191 192 194 202 200 215 2 359 14 8 354 355 4 14 20 58 76 72 86 91 96 97 87 77 62 79 99 90 68 69 69
199 202 205 207 208 211 215 211 209 211 212 214 215 214 210 212 213 210 209 208 208 208 209 211 213 219 223 222 223 225 228 231 235 237 238 239 240 243 247 250 251 251 243 234 234 222 210 211 204 195 197 198 203 205 205 204 201 208 215 241 339 342 346 2 9 10 15 18 29 51 50 52 80 98 96 94 89 84 89 95 94 70 62 71 76
203 207 209 210 208 209 215 215 212 211 213 215 215 218 216 214 215 215 217 215 215 215 216 218 218 221 225 227 227 227 231 235 238 238 238 240 242 244 249 252 250 248 242 243 245 229 215 214 209 205 206 206 210 216 213 209 208 214 227 257 318 341 330 343 12 21 15 4 25 47 35 34 50 86 101 95 92 88 99 101 78 66 68 77 89
209 211 213 213 211 210 214 217 216 213 213 216 218 220 220 219 218 219 221 222 222 221 222 224 225 224 226 229 230 230 233 236 238 238 238 239 241 244 246 247 245 244 240 243 246 231 219 217 215 213 213 213 216 222 220 217 218 223 241 267 296 334 327 325 1 12 0 352 15 38 26 35 40 53 91 100 97 97 109 102 84 78 75 88 101
211 213 216 216 215 213 215 217 218 218 216 217 220 221 222 223 222 223 223 225 226 225 225 226 229 229 226 227 228 230 232 234 237 239 238 238 239 240 240 241 240 239 239 241 241 231 222 220 218 216 217 217 219 222 219 218 216 221 243 278 291 308 322 328 2 0 356 359 17 26 16 25 37 52 84 98 97 120 126 108 92 90 89 97 105
214 215 218 219 218 215 218 219 218 220 220 220 222 223 225 226 226 225 225 227 228 228 228 228 231 232 231 229 227 228 229 231 235 239 239 237 237 236 236 238 237 236 238 238 235 230 226 223 219 218 217 217 219 218 216 218 218 227 248 283 292 292 312 321 351 352 353 1 7 5 2 7 8 149 129 112 125 166 137 114 102 99 101 103 103
217 218 219 221 220 217 218 222 221 219 220 222 223 224 226 228 229 228 227 229 229 230 231 230 231 232 233 232 230 228 228 229 232 237 240 238 235 233 234 235 236 236 236 237 233 231 230 226 220 216 215 218 222 220 223 229 237 248 255 276 286 288 307 316 343 347 343 344 351 352 350 355 350 239 183 150 164 176 134 118 108 103 108 108 103
221 221 220 221 222 219 217 221 224 222 221 222 223 225 226 228 231 231 231 231 231 232 232 232 233 232 233 234 235 233 231 230 230 234 237 237 234 231 233 234 236 237 237 237 234 233 233 228 220 215 216 221 225 224 233 247 256 261 260 272 281 286 295 299 1 351 332 326 337 346 344 344 344 270 189 177 183 165 130 118 110 111 116 114 109
226 225 225 224 223 222 221 221 224 224 223 224 225 225 226 228 231 233 234 234 235 235 234 235 235 234 234 235 238 238 237 234 230 232 235 236 234 232 234 236 238 239 240 240 236 236 234 229 221 215 218 223 225 229 243 259 267 266 266 275 281 286 280 242 304 341 326 307 310 334 338 341 342 270 185 186 192 165 138 127 121 126 125 120 119
228 231 231 229 229 228 226 225 225 225 225 226 226 226 227 229 231 233 235 237 238 238 237 237 238 237 237 236 238 240 240 238 233 231 233 236 236 236 238 239 241 242 243 241 238 236 233 227 220 216 220 224 227 234 248 261 267 273 271 276 281 282 276 241 246 307 315 285 284 323 335 339 344 247 183 187 189 165 146 144 137 137 133 127 127
232 234 233 233 234 234 231 230 228 227 228 230 229 228 229 230 232 235 236 238 238 240 240 239 240 240 239 238 239 240 241 241 239 235 234 238 240 242 243 243 243 244 244 242 238 234 231 226 219 217 222 226 231 240 249 256 261 270 272 273 278 278 274 257 248 273 292 270 261 298 320 333 346 247 191 187 177 165 154 151 146 145 144 143 140
236 233 233 235 236 236 234 233 231 229 231 233 232 231 231 231 233 236 238 239 239 241 242 241 242 242 241 241 240 241 242 242 243 241 239 241 244 245 246 245 244 244 244 243 239 234 230 225 219 220 225 229 237 245 249 255 259 267 274 276 280 280 272 261 249 254 273 269 254 262 291 323 337 284 209 197 182 176 167 155 155 156 153 153 153
237 234 235 237 236 236 235 234 234 232 233 234 233 233 233 233 235 237 239 240 241 242 244 244 244 243 243 243 243 243 243 244 244 244 243 244 247 248 247 244 243 245 245 245 242 236 230 226 222 223 228 234 242 249 251 258 264 270 277 279 281 280 274 266 251 242 260 271 256 247 269 310 317 292 229 210 198 195 184 172 173 172 164 159 159
239 238 238 237 236 237 236 235 235 233 234 235 235 235 236 236 237 239 239 241 242 244 246 246 246 245 245 245 245 246 246 246 245 245 245 245 248 248 246 244 243 245 244 245 243 237 230 227 225 227 231 238 244 250 255 262 268 274 278 277 276 274 274 273 251 236 254 266 258 252 266 286 294 284 248 222 211 208 202 199 200 196 187 171 161
242 241 239 237 236 236 235 235 236 236 235 236 236 236 237 237 238 239 240 241 242 244 247 247 247 246 245 246 247 248 248 248 247 246 246 246 248 249 247 244 243 245 245 245 243 237 232 230 229 231 234 240 244 248 254 261 268 274 278 276 273 269 270 267 246 247 264 261 251 248 253 261 270 276 260 238 227 219 216 218 219 220 213 183 164
244 243 240 239 238 237 236 236 237 237 237 237 237 238 238 238 239 239 240 241 243 245 246 247 247 247 246 247 248 249 250 250 249 248 247 248 249 250 248 244 243 245 246 246 244 239 235 234 234 235 237 240 244 248 253 260 267 274 278 276 271 269 269 259 246 252 263 260 249 240 237 236 246 266 264 248 239 230 226 227 227 234 228 198 176
245 244 241 240 239 238 237 236 236 236 237 237 237 237 237 237 237 238 239 240 242 242 243 245 247 247 248 249 250 250 251 251 251 250 249 249 249 250 249 244 243 244 246 247 245 241 237 236 237 238 239 241 245 248 253 259 265 270 273 273 270 269 268 260 247 243 247 253 252 244 236 229 230 250 262 251 244 241 236 234 236 241 235 216 201
245 243 241 239 238 237 235 235 236 235 234 232 232 232 231 232 233 234 235 237 239 240 242 244 245 247 248 250 250 250 250 251 251 250 249 249 249 249 249 246 243 243 245 246 245 241 236 236 238 240 241 243 246 248 252 257 261 266 268 267 266 265 264 258 248 243 243 248 254 250 240 231 225 230 252 252 245 246 242 238 242 243 233 223 219
243 241 239 238 238 236 233 234 236 233 229 228 228 227 225 226 227 229 232 234 236 237 239 241 243 245 248 249 250 249 249 249 250 249 249 249 249 249 248 246 244 243 244 245 244 242 239 238 240 242 244 245 247 248 251 253 255 258 260 259 260 260 259 254 248 244 243 245 251 249 240 233 227 224 238 247 244 246 245 243 243 239 227 221 222
241 238 236 238 238 235 234 237 237 231 229 230 228 227 227 227 228 230 232 233 233 235 238 240 243 246 248 248 249 248 248 248 248 249 249 249 249 248 247 245 244 244 244 245 245 244 241 239 239 242 244 245 248 250 249 245 239 240 245 252 258 258 256 252 250 248 244 245 247 244 238 233 229 225 229 238 240 242 245 244 239 232 224 221 224
241 239 236 237 236 234 235 237 235 232 232 231 228 230 231 231 231 232 233 231 233 237 241 244 246 248 248 248 248 247 247 247 247 247 248 249 249 248 247 246 245 244 244 244 244 243 240 239 238 240 241 242 246 248 246 240 230 226 230 242 241 253 259 246 242 246 245 245 245 242 238 233 230 227 226 230 235 239 242 241 234 227 223 223 227
237 236 235 234 233 234 235 235 234 233 233 231 230 232 232 231 231 232 234 233 235 240 241 244 246 247 247 247 247 246 246 246 246 247 247 248 248 247 247 246 245 244 243 243 243 242 240 239 239 239 238 237 241 244 242 238 233 223 205 205 190 215 260 239 226 239 240 241 244 243 240 235 231 229 226 228 232 236 239 238 235 230 228 229 232
235 235 234 234 235 236 236 236 235 234 233 233 233 231 227 228 228 228 231 233 235 235 235 238 239 240 242 243 244 244 245 246 246 246 247 247 247 246 245 244 244 244 243 242 243 242 241 240 240 240 238 236 237 241 240 236 235 230 218 204 181 213 247 213 206 236 232 231 238 240 239 236 233 230 227 229 230 232 237 239 239 237 235 235 237
240 240 238 238 238 238 237 236 235 234 233 233 232 228 223 223 221 218 219 220 222 224 228 233 234 234 237 239 241 243 244 245 246 246 246 246 245 244 243 242 243 243 242 242 242 242 242 241 240 240 240 240 238 237 237 236 235 233 227 225 232 239 228 168 175 249 226 226 230 233 234 234 234 231 228 230 231 233 237 240 240 240 239 238 239
246 246 242 240 239 239 238 237 236 235 233 232 230 225 221 221 220 219 219 217 218 224 231 234 234 234 235 237 239 242 243 244 245 245 245 245 244 243 242 241 242 242 242 242 242 242 242 242 242 241 242 241 237 232 235 235 230 231 231 230 234 238 237 221 213 223 221 225 224 224 228 228 229 229 229 232 233 234 237 238 239 239 238 239 241
250 247 243 242 241 240 239 238 237 236 234 231 227 224 221 220 220 221 222 222 223 229 234 234 233 234 235 237 239 241 242 243 244 244 244 244 243 242 241 240 240 240 240 241 242 242 241 242 242 242 242 241 237 233 235 233 226 230 232 230 230 234 236 236 234 231 234 241 217 216 222 223 223 225 228 233 234 235 236 237 237 236 237 239 240
252 249 247 246 245 243 241 238 237 236 234 231 227 225 224 221 221 221 222 225 228 233 235 235 235 234 235 237 238 239 240 241 242 242 242 243 243 242 240 239 239 239 238 240 242 241 241 241 240 241 241 240 238 236 235 234 232 233 232 228 228 231 233 237 237 233 234 241 224 195 205 211 221 225 226 230 233 235 235 236 236 236 237 238 238
255 253 251 249 246 244 241 238 237 236 234 232 228 227 225 222 222 222 224 227 230 232 234 235 236 235 235 236 236 237 238 239 240 240 241 242 242 242 240 239 240 239 238 239 240 239 239 240 240 241 241 240 239 237 237 238 236 235 233 228 224 224 228 233 232 228 231 237 240 225 195 195 211 226 227 229 231 232 233 233 234 234 235 235 235
256 253 251 248 246 243 240 238 238 236 233 231 229 227 225 222 223 223 225 228 230 230 230 232 233 233 234 235 235 236 237 238 239 239 241 241 241 240 240 241 240 238 238 238 238 238 239 239 240 240 241 241 239 238 240 240 237 235 234 230 226 226 227 226 222 220 221 225 230 233 211 207 215 226 229 230 229 230 231 230 231 233 234 234 234